TimeIST,TemperatureF,Dew PointF,Humidity,Sea Level PressureIn,VisibilityMPH,Wind Direction,Wind SpeedMPH,Gust SpeedMPH,PrecipitationIn,Events,Conditions,WindDirDegrees,DateUTC
12:00 AM,44.6,44.6,100,30.04,0.3,West,5.8,-,N/A,Fog,Fog,280,2013-01-02 18:30:00
12:30 AM,42.8,42.8,100,30.01,0.3,West,4.6,-,N/A,Fog,Fog,280,2013-01-02 19:00:00
1:00 AM,42.8,42.8,100,30.01,0.2,West,4.6,-,N/A,Fog,Fog,260,2013-01-02 19:30:00
2:00 AM,39.2,39.2,100,30.01,-9999.0,West,3.5,-,N/A,Fog,Fog,270,2013-01-02 20:30:00
2:30 AM,41.0,41.0,100,30.01,-9999.0,West,4.6,-,N/A,Fog,Fog,270,2013-01-02 21:00:00
3:00 AM,41.0,41.0,100,30.01,-9999.0,SW,5.8,-,N/A,Fog,Fog,220,2013-01-02 21:30:00
3:30 AM,41.0,41.0,100,30.01,-9999.0,West,5.8,-,N/A,Fog,Fog,280,2013-01-02 22:00:00
4:00 AM,41.0,41.0,100,30.01,-9999.0,WNW,5.8,-,N/A,Fog,Fog,290,2013-01-02 22:30:00
4:30 AM,41.0,41.0,100,30.01,0.0,West,8.1,-,N/A,Fog,Fog,280,2013-01-02 23:00:00
5:00 AM,41.0,41.0,100,30.01,0.0,West,8.1,-,N/A,Fog,Fog,270,2013-01-02 23:30:00
5:30 AM,42.8,42.8,100,30.04,0.0,NW,8.1,-,N/A,Fog,Fog,310,2013-01-03 00:00:00
6:00 AM,42.8,42.8,100,30.04,0.1,West,8.1,-,N/A,Fog,Fog,280,2013-01-03 00:30:00
6:30 AM,42.8,42.8,100,30.04,0.2,West,8.1,-,N/A,Fog,Fog,270,2013-01-03 01:00:00
7:00 AM,42.8,42.8,100,30.04,0.3,WNW,8.1,-,N/A,Fog,Fog,300,2013-01-03 01:30:00
7:30 AM,42.8,42.8,100,30.04,0.4,NW,8.1,-,N/A,Fog,Shallow Fog,310,2013-01-03 02:00:00
8:00 AM,44.6,44.6,100,30.06,0.4,WNW,6.9,-,N/A,Fog,Shallow Fog,290,2013-01-03 02:30:00
8:30 AM,44.6,44.6,100,30.06,0.4,WNW,6.9,-,N/A,Fog,Shallow Fog,300,2013-01-03 03:00:00
9:30 AM,42.8,42.8,100,30.09,0.6,NW,6.9,-,N/A,Fog,Shallow Fog,310,2013-01-03 04:00:00
10:00 AM,42.8,42.8,100,30.12,0.6,WNW,6.9,-,N/A,Fog,Shallow Fog,300,2013-01-03 04:30:00
10:30 AM,42.8,42.8,100,30.12,0.6,WNW,5.8,-,N/A,Fog,Shallow Fog,300,2013-01-03 05:00:00
11:00 AM,46.4,46.4,100,30.09,0.6,WSW,3.5,-,N/A,,Mist,250,2013-01-03 05:30:00
11:30 AM,46.4,46.4,100,30.09,0.7,West,4.6,-,N/A,,Scattered Clouds,270,2013-01-03 06:00:00
12:00 PM,46.4,46.4,100,30.09,0.9,West,5.8,-,N/A,,Scattered Clouds,270,2013-01-03 06:30:00
1:00 PM,48.2,48.2,100,30.06,1.1,WNW,6.9,-,N/A,,Scattered Clouds,290,2013-01-03 07:30:00
1:30 PM,48.2,48.2,100,30.06,1.1,WNW,6.9,-,N/A,,Scattered Clouds,290,2013-01-03 08:00:00
2:00 PM,50.0,50.0,100,30.04,1.0,WNW,8.1,-,N/A,,Scattered Clouds,300,2013-01-03 08:30:00
3:00 PM,50.0,48.2,94,30.04,1.0,NNW,8.1,-,N/A,,Scattered Clouds,330,2013-01-03 09:30:00
3:30 PM,50.0,48.2,94,30.01,1.1,NNW,8.1,-,N/A,,Scattered Clouds,330,2013-01-03 10:00:00
4:00 PM,50.0,48.2,94,30.01,1.1,NW,6.9,-,N/A,,Partly Cloudy,320,2013-01-03 10:30:00
4:30 PM,50.0,46.4,87,30.01,1.2,NW,5.8,-,N/A,,Partly Cloudy,320,2013-01-03 11:00:00
5:00 PM,50.0,46.4,87,30.01,1.2,WNW,4.6,-,N/A,,Partly Cloudy,300,2013-01-03 11:30:00
5:30 PM,48.2,46.4,93,30.01,1.1,West,5.8,-,N/A,,Mist,270,2013-01-03 12:00:00
6:30 PM,46.4,46.4,100,30.04,0.7,West,3.5,-,N/A,,Mist,270,2013-01-03 13:00:00
7:00 PM,44.6,44.6,100,30.04,0.6,Calm,Calm,-,N/A,,Mist,0,2013-01-03 13:30:00
8:00 PM,44.6,44.6,100,30.06,0.5,Calm,Calm,-,N/A,Fog,Shallow Fog,0,2013-01-03 14:30:00
8:30 PM,44.6,44.6,100,30.06,0.4,NW,3.5,-,N/A,Fog,Shallow Fog,320,2013-01-03 15:00:00
9:00 PM,44.6,44.6,100,30.06,0.4,North,4.6,-,N/A,Fog,Shallow Fog,350,2013-01-03 15:30:00
9:30 PM,44.6,44.6,100,30.06,0.4,North,3.5,-,N/A,Fog,Shallow Fog,360,2013-01-03 16:00:00
10:00 PM,44.6,44.6,100,30.06,0.3,NNE,4.6,-,N/A,Fog,Fog,20,2013-01-03 16:30:00
10:30 PM,44.6,44.6,100,30.06,0.3,NNE,4.6,-,N/A,Fog,Fog,20,2013-01-03 17:00:00
11:00 PM,42.8,42.8,100,30.06,0.2,NNE,2.3,-,N/A,Fog,Fog,30,2013-01-03 17:30:00
11:30 PM,42.8,42.8,100,30.04,0.2,NNE,2.3,-,N/A,Fog,Fog,30,2013-01-03 18:00:00